Regional Weather Roundup
Issued by NWS San Diego, CA

Current Version | Previous Version | Text Only | Print | Product List | Glossary On
Versions: 1 2 3 4 5 6 7 8 9 10 11 12 13 14 15 16 17 18 19 20 21 22 23 24
000
ASUS46 KSGX 211311
RWRSGX

SAN DIEGO HOURLY WEATHER ROUNDUP
NATIONAL WEATHER SERVICE SAN DIEGO CA
600 AM PDT SUN OCT 21 2018

NOTE: "FAIR" INDICATES FEW OR NO CLOUDS BELOW 12,000 FEET WITH NO
SIGNIFICANT WEATHER AND/OR OBSTRUCTIONS TO VISIBILITY.

CAZ042-043-060-061-PZZ750-775-211400-

GREATER SAN DIEGO AREA

CITY           SKY/WX    TMP DP  RH WIND       PRES   REMARKS
SAN DIEGO AP   PTCLDY    63  49  60 CALM      29.92S
NATIONAL CITY    N/A     56  47  70 CALM      29.91S
CHULA VISTA      N/A     54  46  73 CALM      29.82S
IMPERIAL BEACH CLEAR     53  45  74 E3        29.92R
BROWN FIELD    CLEAR     54  39  57 E6        29.92R
MIRAMAR MCAS   CLEAR     57  39  51 E6        29.91R
MONTGOMERY FLD CLEAR     58  40  51 E3        29.92R
GILLESPIE FLD  FAIR      52  39  62 CALM      29.92R

$$

NORTH SAN DIEGO COUNTY

CITY           SKY/WX    TMP DP  RH WIND       PRES   REMARKS
CAMP PENDLETON CLEAR     49  44  83 CALM      29.92R
OCEANSIDE AP   CLEAR     49  43  80 CALM      29.91R
OCEANSIDE HBR    N/A     56  47  71 S2        29.93R
VISTA            N/A     55  46  72 CALM      29.88R
CARLSBAD       CLEAR     59  42  53 E3        29.90R
DEL MAR          N/A     60  47  61 CALM      29.92R
LA JOLLA SCRIP   N/A     64  48  56 E3        29.91R
FALLBROOK      FAIR      59  43  55 N3        29.92R
ESCONDIDO        N/A     56  42  60 CALM      29.92R
SAN MARCOS       N/A     60  43  52 CALM      29.93S
POWAY            N/A     50  40  67 CALM      29.93R

$$

EAST SAN DIEGO COUNTY

CITY           SKY/WX    TMP DP  RH WIND       PRES   REMARKS
RAMONA         CLEAR     46  39  76 CALM      29.94R
LA MESA          N/A     62  40  45 CALM      29.85R
JAMUL            N/A     54  39  57 CALM      29.91R
CAMPO            N/A     44  36  73 NE7       29.95S

$$

ORANGE COUNTY AND THE LOS ANGELES BASIN

CITY           SKY/WX    TMP DP  RH WIND       PRES   REMARKS
JOHN WAYNE AP  CLEAR     62  49  62 CALM      29.90R
LAKE FOREST FR   N/A     62  34  35 NE2       29.77R
HUNTINGTON BCH   N/A     56  55  96 E1        29.91R
LOS ALAMITOS   FAIR      59  49  70 CALM      29.90R
FULLERTON      CLEAR     59  47  64 CALM      29.90R
LONG BEACH     CLEAR     62  57  83 CALM      29.90R
L.A. AP        CLEAR     62  56  80 NE3       29.90S
L.A. DOWNTOWN  CLEAR     62  49  62 CALM      29.90R

$$

THE INLAND EMPIRE

CITY           SKY/WX    TMP DP  RH WIND       PRES   REMARKS
CORONA         CLEAR     48  44  86 CALM      29.92R
CHINO          CLEAR     56  47  71 CALM      29.93R HAZE
ONTARIO        CLEAR     61  44  53 CALM      29.91S
SAN BERNARDINO FAIR      58  44  58 CALM      29.93R
RIVERSIDE AP   CLEAR     58  43  57 CALM      29.92R
MORENO VALLEY    N/A     60  44  56 CALM      28.05R
MARCH ARB      CLEAR     49  41  74 CALM      29.93S
HORSETHIEF CYN   N/A     58  38  46 CALM      29.89S
PERRIS           N/A     55  45  68 CALM        N/A
HEMET EAST       N/A     60  37  42 CALM      29.84S
FRENCH VALLEY  FAIR      55  41  58 CALM      29.94S
TEMECULA         N/A     54  47  78 CALM      29.94R

$$

SAN BERNARDINO AND RIVERSIDE COUNTY MOUNTAINS

CITY           SKY/WX    TMP DP  RH WIND       PRES   REMARKS
BIG BEAR AP    CLEAR     32  30  93 CALM      30.15S
ANGELUS OAKS     N/A     45  35  68 CALM      29.86R

$$

SOUTHERN DESERT INCLUDING THE COACHELLA VALLEY

CITY           SKY/WX    TMP DP  RH WIND       PRES   REMARKS
PALM SPRINGS   CLEAR     71  42  35 NW3       29.88R
THOUSAND PALMS   N/A     69  47  44 W2        29.83R
PALM DESERT      N/A     65  49  55 CALM        N/A
THERMAL        CLEAR     62  50  64 CALM      29.83R
BORREGO AP     FAIR      55  41  58 CALM      29.87S
BLYTHE         CLEAR     65  54  67 NW3       29.87R
IMPERIAL AP    CLEAR     65  45  48 S5        29.84R
EL CENTRO NAS  CLEAR     65  33  30 S7        29.86R
YUMA AZ        CLEAR     65  51  60 W3        29.86R
MEXICALI       CLEAR     61  46  59 CALM      29.86

$$

UPPER DESERT

CITY           SKY/WX    TMP DP  RH WIND       PRES   REMARKS
VICTORVILLE AP CLEAR    N/A N/A N/A SE5       30.00
HESPERIA         N/A     53  40  61 NE3       29.95R
APPLE VALLEY     N/A     42  40  93 CALM      29.98S
PALMDALE       CLEAR     50  33  52 S8        30.00R
LANCASTER      CLEAR     49  28  44 CALM      29.99R
EDWARDS AFB    CLEAR     49  29  45 SW8       29.97R HAZE
DAGGETT        CLEAR     60  42  51 SW9       29.96R
29 PALMS N     CLEAR     62  46  55 W8        30.01S
NEEDLES        PTCLDY    70  53  54 SW6       29.90R

$$

REGIONAL REPORTS

CITY           SKY/WX    TMP DP  RH WIND       PRES   REMARKS
SANTA BARBARA  CLEAR     58  45  62 CALM      29.87R
SANDBERG       CLEAR     59  26  28 N12       30.07S
LAS VEGAS NV   LGT RAIN  64  57  78 CALM      29.98F
PHOENIX AZ     PTCLDY    73  50  44 E6        29.93R
TIJUANA        CLEAR     57  39  51 CALM      29.94

$$

OFFSHORE ISLANDS

CITY           SKY/WX    TMP DP  RH WIND       PRES   REMARKS
CATALINA ARPT  CLEAR     68  33  27 W7        29.95R
SAN CLEMENTE I CLOUDY    60  32  34 SW9       29.93R
SAN NICOLAS IS CLEAR     62  32  32 CALM      29.90R

$$

MARINE AND OFFSHORE BUOY REPORTS

STATION/POSITION SKY/WX   TEMP    WIND        PRES    VSBY  SWELL
                          AIR SEA DIR/SP/G                  HT/PER/DIR
                          (F)     (DEG/KT/KT) (MB)    (MI)  (FT/S/D)
TANNER BANKS               64 67              1012.7R
S CLEMENTE BASIN           66 68  270/ 10/ 12 1012.3R         3/240/13
SAN NICOLAS IS.               66                N/A           3/300/12
SO. S. ROSA ISLA           62 66  290/ 16/ 17 1011.6          3/290/12
W. S. BARBARA CH                                N/A           3/290/12
M. S. BARBARA CH           65 66  210/  6/  8 1011.9R         2/260/12
S. MONICA BASIN            67 68  230/  2/  4 1011.7R         2/160/15
S PEDRO CHANNEL               68                N/A           2/240/12
CMP PENDLETON NS              66                N/A           2/210/14
OCEANSIDE OFFSHR              68                N/A           2/200/14
TORREY PINES OTR              67                N/A           2/210/14
SAN DIEGO BAY                                 1012.5R
IMPERIAL BEACH                64                N/A           2/250/13
POINT LOMA SOUTH              68                N/A           2/190/14

$$




USA.gov is the U.S. government's official web portal to all federal, state and local government web resources and services.